This is the latest recevied weather packets stored in our database for station/object IK6IHU-3. If no packets are shown the sender has not sent any weather packets the latest 1 day(s).
| Time | Temp. | Humidity | Pressure | Rain* | Wind** | Luminosity | Snow |
|---|---|---|---|---|---|---|---|
| 1778037984 | 14.44° C | 73% | 1011.5 hPa | 0 mm | 1.79 m/s, 288° | 0 W/m² | - |
| 1778037924 | 13.89° C | 74% | 1011.5 hPa | 0 mm | 1.34 m/s, 285° | 0 W/m² | - |
| 1778037864 | 13.89° C | 74% | 1011.5 hPa | 0 mm | 0.89 m/s, 285° | 0 W/m² | - |
| 1778037804 | 13.89° C | 74% | 1011.5 hPa | 0 mm | 1.34 m/s, 284° | 0 W/m² | - |
| 1778037744 | 13.89° C | 75% | 1011.5 hPa | 0 mm | 0.89 m/s, 284° | 0 W/m² | - |
| 1778037685 | 13.89° C | 75% | 1011.4 hPa | 0 mm | 0.89 m/s, 282° | 0 W/m² | - |
| 1778037624 | 13.89° C | 76% | 1011.5 hPa | 0 mm | 1.34 m/s, 283° | 0 W/m² | - |
| 1778037564 | 13.33° C | 76% | 1011.5 hPa | 0 mm | 0.89 m/s, 283° | 0 W/m² | - |
| 1778037504 | 13.33° C | 76% | 1011.6 hPa | 0 mm | 0.89 m/s, 282° | 0 W/m² | - |
| 1778037444 | 13.89° C | 76% | 1011.5 hPa | 0 mm | 1.34 m/s, 281° | 0 W/m² | - |
| 1778037384 | 13.89° C | 76% | 1011.7 hPa | 0 mm | 1.79 m/s, 276° | 0 W/m² | - |
| 1778037324 | 13.89° C | 76% | 1011.5 hPa | 0 mm | 1.79 m/s, 264° | 0 W/m² | - |
| 1778037264 | 13.89° C | 76% | 1011.5 hPa | 0 mm | 1.34 m/s, 247° | 0 W/m² | - |
| 1778037204 | 14.44° C | 75% | 1011.6 hPa | 0 mm | 0.89 m/s, 217° | 0 W/m² | - |
| 1778037145 | 14.44° C | 75% | 1011.6 hPa | 0 mm | 0 m/s | 0 W/m² | - |
| 1778037084 | 14.44° C | 75% | 1011.5 hPa | 0 mm | 0 m/s | 0 W/m² | - |
| 1778037024 | 14.44° C | 74% | 1011.5 hPa | 0 mm | 0 m/s | 0 W/m² | - |
| 1778036965 | 14.44° C | 74% | 1011.7 hPa | 0 mm | 0 m/s | 0 W/m² | - |
| 1778036904 | 14.44° C | 74% | 1011.3 hPa | 0 mm | 0.45 m/s, 176° | 0 W/m² | - |
| 1778036844 | 14.44° C | 74% | 1011.6 hPa | 0 mm | 0.89 m/s, 166° | 0 W/m² | - |
| 1778036784 | 14.44° C | 73% | 1011.5 hPa | 0 mm | 0.89 m/s, 146° | 0 W/m² | - |
| 1778036724 | 15° C | 73% | 1011.4 hPa | 0 mm | 0.89 m/s, 128° | 0 W/m² | - |
| 1778036664 | 15° C | 73% | 1011.5 hPa | 0 mm | 0.89 m/s, 116° | 0 W/m² | - |
| 1778036604 | 15° C | 73% | 1011.3 hPa | 0 mm | 0.89 m/s, 108° | 0 W/m² | - |
| 1778036544 | 15° C | 73% | 1011.5 hPa | 0 mm | 0 m/s | 0 W/m² | - |
* Rain latest hour (hover to see other rain measurements)
** Current wind speed in m/s (hover to see current wind gust speed)